This demonstration page uses our WeatherBlox Daily Observations layout. Learn more.

Left ArrowRight Arrow

Hourly Observations for December 21, 2017

Temp ( °F °C ) Dew Point ( °F °C ) Humidity (%) Winds ( mph kmh ) Pressure ( in mb ) Visibility ( mi km ) Precip ( " mm )
12:04 am 00:04 Cloudy with Mist and Fog 58 14.4 58 14.4 100 100 Calm 29.94 1014 4 6 0.00 0.00
12:24 am 00:24 Cloudy 58 14.4 58 14.4 100 100 Calm 29.94 1014 10 16 0.00 0.00
12:53 am 00:53 Cloudy 58 14.4 58 14.4 100 100 E 3 6 29.92 1013 10 16 0.00 0.00
1:15 am 01:15 Cloudy 58 14.4 58 14.4 100 100 Calm 29.94 1014 10 16 0.00 0.00
1:49 am 01:49 Cloudy 57 14 57 14 100 100 ENE 7 11 29.94 1014 10 16 0.00 0.00
1:53 am 01:53 Cloudy 58 14.4 57 13.9 97 97 ENE 7 11 29.93 1014 10 16 0.00 0.00
2:17 am 02:17 Cloudy 58 14.4 57 13.9 97 97 E 7 11 29.94 1014 10 16 0.00 0.00
2:53 am 02:53 Cloudy 57 13.9 57 13.9 100 100 ENE 5 7 29.95 1014 10 16 0.00 0.00
3:03 am 03:03 Cloudy 57 13.9 57 13.9 100 100 ENE 3 6 29.97 1015 10 16 0.00 0.00
3:53 am 03:53 Cloudy with Light Rain 56 13.3 56 13.3 100 100 ENE 9 15 29.96 1015 5 8 0.00 0.03
4:53 am 04:53 Cloudy 56 13.3 56 13.3 100 100 ENE 7 11 29.97 1015 10 16 0.01 0.25
5:09 am 05:09 Cloudy with Light Rain 55 12.8 54 12.2 96 96 ENE 9 15 30.00 1016 6 10 0.00 0.03
5:34 am 05:34 Cloudy 55 12.8 54 12.2 96 96 E 7 11 30.00 1016 10 16 0.00 0.03
5:53 am 05:53 Cloudy 54 12.2 54 12.2 100 100 NE 8 13 29.99 1016 10 16 0.00 0.03
6:53 am 06:53 Cloudy 54 12.2 54 12.2 100 100 E 8 13 30.02 1017 10 16 0.00 0.00
7:53 am 07:53 Cloudy 53 11.7 53 11.7 100 100 ENE 8 13 30.04 1017 10 16 0.00 0.00
8:53 am 08:53 Cloudy 53 11.7 53 11.7 100 100 ENE 6 9 30.07 1018 10 16 0.00 0.00
9:53 am 09:53 Cloudy 54 12.2 52 11.1 93 93 ENE 7 11 30.10 1019 10 16 0.00 0.03
10:53 am 10:53 Cloudy with Light Rain 54 12.2 52 11.1 93 93 ESE 6 9 30.12 1020 10 16 0.00 0.03
11:53 am 11:53 Cloudy with Light Rain 53 11.7 52 11.1 96 96 E 8 13 30.12 1020 10 16 0.00 0.03
12:53 pm 12:53 Cloudy with Light Rain 54 12.2 53 11.7 97 97 E 5 7 30.09 1019 10 16 0.00 0.03
1:53 pm 13:53 Cloudy with Light Rain 54 12.2 54 12.2 100 100 E 6 9 30.08 1019 5 8 0.00 0.03
2:53 pm 14:53 Cloudy with Light Rain 54 12.2 53 11.7 97 97 E 6 9 30.09 1019 7 11 0.00 0.03
3:45 pm 15:45 Cloudy with Light Rain 54 12.2 53 11.7 97 97 E 6 9 30.15 1021 5 8 0.00 0.03
3:53 pm 15:53 Cloudy with Mist and Fog 54 12.2 53 11.7 97 97 ESE 5 7 30.11 1020 5 8 0.00 0.03
4:18 pm 16:18 Cloudy with Mist and Fog 54 12.2 53 11.7 97 97 E 5 7 30.15 1021 6 10 0.00 0.00
4:53 pm 16:53 Cloudy 54 12.2 54 12.2 100 100 ENE 7 11 30.11 1020 10 16 0.00 0.00
5:37 pm 17:37 Cloudy 54 12.2 53 11.7 97 97 E 5 7 30.15 1021 10 16 0.00 0.00
5:53 pm 17:53 Cloudy 54 12.2 54 12.2 100 100 ENE 6 9 30.12 1020 8 13 0.00 0.00
6:53 pm 18:53 Cloudy 53 11.7 53 11.7 100 100 E 5 7 30.13 1020 10 16 0.00 0.00
7:53 pm 19:53 Cloudy with Light Rain 53 11.7 53 11.7 100 100 VRB 3 6 30.14 1021 10 16 0.00 0.03
8:53 pm 20:53 Cloudy with Light Rain 53 11.7 52 11.1 96 96 E 3 6 30.15 1021 10 16 0.00 0.03
9:53 pm 21:53 Cloudy with Light Rain 53 11.7 52 11.1 96 96 ESE 3 6 30.16 1021 10 16 0.00 0.03
10:53 pm 22:53 Cloudy with Light Rain 53 11.7 52 11.1 96 96 ESE 5 7 30.17 1022 10 16 0.00 0.03
11:53 pm 23:53 Cloudy with Light Rain 53 11.7 53 11.7 100 100 ESE 5 7 30.16 1022 9 14 0.00 0.03

Powered by AerisWeather